Simultaneous Nadir Overpasses (SNOs) Predictions

Prediction of SNOs between GOES-17 and NPP Satellite Orbit:

Table of predicted SNOs for the next 14.0 days since TLE Epoch: 2/4/2023
Index Date Time (GOES-17) GOES-17 Lat,Lon NPP Lat,Lon Distance(km) Time Diff (sec)
1 02/04/2023 20:37:58 -0.01,-109.64 0.47,-107.55 238.35 80
2 02/07/2023 08:38:11 0.01,-106.71 0.33,-108.14 163.18 80
3 02/08/2023 08:22:03 0.01,-105.55 -0.44,-103.55 227.80 80
4 02/10/2023 20:22:25 -0.01,-102.63 -0.33,-104.18 176.77 80
5 02/11/2023 20:06:15 -0.01,-101.47 0.39, -99.59 214.32 80
6 02/14/2023 08:06:28 0.01, -98.54 0.40,-100.18 187.18 80
7 02/15/2023 07:50:19 0.01, -97.38 -0.38, -95.59 203.49 80
8 02/17/2023 19:50:40 -0.02, -94.44 -0.43, -96.21 202.28 80
